Time,TemperatureF,DewpointF,PressureIn,WindDirection,WindDirectionDegrees,WindSpeedMPH,WindSpeedGustMPH,Humidity,HourlyPrecipIn,Conditions,Clouds,dailyrainin,SolarRadiationWatts/m^2,SoftwareType,DateUTC
2013-04-22 00:02:00,65.2,53.1,30.13,NW,312,0.0,-999.0,65,0.00,,,0.00,0,Wunderground v.1.15,2013-04-22 05:02:00,
2013-04-22 00:08:00,65.1,53.0,30.13,WNW,288,0.0,-999.0,65,0.00,,,0.00,0,Wunderground v.1.15,2013-04-22 05:08:00,
2013-04-22 00:14:00,65.0,52.5,30.13,North,355,1.0,-999.0,64,0.00,,,0.00,0,Wunderground v.1.15,2013-04-22 05:14:00,
2013-04-22 00:20:00,64.9,52.0,30.13,North,355,0.0,-999.0,63,0.00,,,0.00,0,Wunderground v.1.15,2013-04-22 05:20:00,
2013-04-22 00:26:00,64.9,52.4,30.13,SE,144,0.0,-999.0,64,0.00,,,0.00,0,Wunderground v.1.15,2013-04-22 05:26:00,
2013-04-22 00:32:00,64.8,52.8,30.13,NNE,27,0.0,-999.0,65,0.00,,,0.00,0,Wunderground v.1.15,2013-04-22 05:32:00,
2013-04-22 00:38:00,64.8,53.2,30.13,SW,229,0.0,-999.0,66,0.00,,,0.00,0,Wunderground v.1.15,2013-04-22 05:38:00,
2013-04-22 00:44:00,64.9,52.4,30.13,NNE,23,0.0,-999.0,64,0.00,,,0.00,0,Wunderground v.1.15,2013-04-22 05:44:00,
2013-04-22 00:50:00,64.9,52.0,30.13,NNE,12,1.0,-999.0,63,0.00,,,0.00,0,Wunderground v.1.15,2013-04-22 05:50:00,
2013-04-22 00:56:00,64.8,52.3,30.13,ENE,77,1.0,-999.0,64,0.00,,,0.00,0,Wunderground v.1.15,2013-04-22 05:56:00,
2013-04-22 01:02:00,64.7,52.2,30.12,ENE,64,0.0,-999.0,64,0.00,,,0.00,0,Wunderground v.1.15,2013-04-22 06:02:00,
2013-04-22 01:08:00,64.5,52.0,30.12,East,84,0.0,-999.0,64,0.00,,,0.00,0,Wunderground v.1.15,2013-04-22 06:08:00,
2013-04-22 01:14:00,64.3,52.3,30.12,East,93,0.0,-999.0,65,0.00,,,0.00,0,Wunderground v.1.15,2013-04-22 06:14:00,
2013-04-22 01:20:00,64.1,52.5,30.12,ENE,72,0.0,-999.0,66,0.00,,,0.00,0,Wunderground v.1.15,2013-04-22 06:20:00,
2013-04-22 01:26:00,64.0,52.8,30.12,East,82,0.0,-999.0,67,0.00,,,0.00,0,Wunderground v.1.15,2013-04-22 06:26:00,
2013-04-22 01:32:00,63.9,52.7,30.11,NW,304,0.0,-999.0,67,0.00,,,0.00,0,Wunderground v.1.15,2013-04-22 06:32:00,
2013-04-22 01:38:00,63.8,52.6,30.11,NNW,345,0.0,-999.0,67,0.00,,,0.00,0,Wunderground v.1.15,2013-04-22 06:38:00,
2013-04-22 01:44:00,63.8,53.0,30.11,North,5,0.0,-999.0,68,0.00,,,0.00,0,Wunderground v.1.15,2013-04-22 06:44:00,
2013-04-22 01:50:00,63.7,52.9,30.10,SE,138,0.0,-999.0,68,0.00,,,0.00,0,Wunderground v.1.15,2013-04-22 06:50:00,
2013-04-22 01:56:00,63.6,52.8,30.10,ESE,119,0.0,-999.0,68,0.00,,,0.00,0,Wunderground v.1.15,2013-04-22 06:56:00,
2013-04-22 02:02:00,63.5,53.1,30.10,ESE,119,0.0,-999.0,69,0.00,,,0.00,0,Wunderground v.1.15,2013-04-22 07:02:00,
2013-04-22 02:08:00,63.3,53.0,30.10,ESE,119,0.0,-999.0,69,0.00,,,0.00,0,Wunderground v.1.15,2013-04-22 07:08:00,
2013-04-22 02:14:00,63.2,52.9,30.09,ESE,119,0.0,-999.0,69,0.00,,,0.00,0,Wunderground v.1.15,2013-04-22 07:14:00,
2013-04-22 02:20:00,63.1,53.2,30.09,ESE,119,0.0,-999.0,70,0.00,,,0.00,0,Wunderground v.1.15,2013-04-22 07:20:00,
2013-04-22 02:26:00,62.9,53.4,30.09,NE,36,0.0,-999.0,71,0.00,,,0.00,0,Wunderground v.1.15,2013-04-22 07:26:00,
2013-04-22 02:32:00,62.8,53.3,30.09,NE,36,0.0,-999.0,71,0.00,,,0.00,0,Wunderground v.1.15,2013-04-22 07:32:00,
2013-04-22 02:38:00,62.7,53.5,30.09,NE,36,0.0,-999.0,72,0.00,,,0.00,0,Wunderground v.1.15,2013-04-22 07:38:00,
2013-04-22 02:44:00,62.7,53.9,30.09,NE,36,0.0,-999.0,73,0.00,,,0.00,0,Wunderground v.1.15,2013-04-22 07:44:00,
2013-04-22 02:50:00,62.6,54.2,30.09,NE,36,0.0,-999.0,74,0.00,,,0.00,0,Wunderground v.1.15,2013-04-22 07:50:00,
2013-04-22 02:56:00,62.7,54.7,30.09,NE,36,0.0,-999.0,75,0.00,,,0.00,0,Wunderground v.1.15,2013-04-22 07:56:00,
2013-04-22 03:02:00,62.7,54.7,30.09,NE,36,0.0,-999.0,75,0.00,,,0.00,0,Wunderground v.1.15,2013-04-22 08:02:00,
2013-04-22 03:08:00,62.8,55.1,30.09,NE,36,0.0,-999.0,76,0.00,,,0.00,0,Wunderground v.1.15,2013-04-22 08:08:00,
2013-04-22 03:14:00,62.9,55.2,30.09,NE,36,0.0,-999.0,76,0.00,,,0.00,0,Wunderground v.1.15,2013-04-22 08:14:00,
2013-04-22 03:20:00,63.1,55.4,30.09,NE,36,0.0,-999.0,76,0.00,,,0.00,0,Wunderground v.1.15,2013-04-22 08:20:00,
2013-04-22 03:26:00,63.3,56.0,30.08,NE,36,0.0,-999.0,77,0.00,,,0.00,0,Wunderground v.1.15,2013-04-22 08:26:00,
2013-04-22 03:32:00,63.4,56.1,30.08,NE,36,0.0,-999.0,77,0.00,,,0.00,0,Wunderground v.1.15,2013-04-22 08:32:00,
2013-04-22 03:38:00,63.5,56.2,30.09,NW,306,0.0,-999.0,77,0.00,,,0.00,0,Wunderground v.1.15,2013-04-22 08:38:00,
2013-04-22 03:44:00,63.7,56.0,30.09,East,92,0.0,-999.0,76,0.00,,,0.00,0,Wunderground v.1.15,2013-04-22 08:44:00,
2013-04-22 03:50:00,63.8,55.7,30.09,South,173,0.0,-999.0,75,0.00,,,0.00,0,Wunderground v.1.15,2013-04-22 08:50:00,
2013-04-22 03:56:00,63.9,55.8,30.09,WSW,249,0.0,-999.0,75,0.00,,,0.00,0,Wunderground v.1.15,2013-04-22 08:56:00,
2013-04-22 04:02:00,64.0,55.9,30.09,WSW,246,0.0,-999.0,75,0.00,,,0.00,0,Wunderground v.1.15,2013-04-22 09:02:00,
2013-04-22 04:08:00,64.0,55.5,30.09,East,95,0.0,-999.0,74,0.00,,,0.00,0,Wunderground v.1.15,2013-04-22 09:08:00,
2013-04-22 04:14:00,64.1,55.6,30.09,East,85,0.0,-999.0,74,0.00,,,0.00,0,Wunderground v.1.15,2013-04-22 09:14:00,
2013-04-22 04:20:00,64.1,55.6,30.09,East,90,0.0,-999.0,74,0.00,,,0.00,0,Wunderground v.1.15,2013-04-22 09:20:00,
2013-04-22 04:26:00,64.1,56.0,30.09,East,90,0.0,-999.0,75,0.00,,,0.00,0,Wunderground v.1.15,2013-04-22 09:26:00,
2013-04-22 04:32:00,64.3,56.2,30.09,East,88,0.0,-999.0,75,0.00,,,0.00,0,Wunderground v.1.15,2013-04-22 09:32:00,
2013-04-22 04:38:00,64.3,56.2,30.09,East,88,0.0,-999.0,75,0.00,,,0.00,0,Wunderground v.1.15,2013-04-22 09:38:00,
2013-04-22 04:44:00,64.3,56.2,30.09,East,89,0.0,-999.0,75,0.00,,,0.00,0,Wunderground v.1.15,2013-04-22 09:44:00,
2013-04-22 04:50:00,64.3,56.2,30.09,East,89,0.0,-999.0,75,0.00,,,0.00,0,Wunderground v.1.15,2013-04-22 09:50:00,
2013-04-22 04:56:00,64.2,56.1,30.09,East,89,0.0,-999.0,75,0.00,,,0.00,0,Wunderground v.1.15,2013-04-22 09:56:00,
2013-04-22 05:02:00,64.2,56.1,30.09,East,89,0.0,-999.0,75,0.00,,,0.00,0,Wunderground v.1.15,2013-04-22 10:02:00,
2013-04-22 05:08:00,64.1,56.4,30.09,East,87,0.0,-999.0,76,0.00,,,0.00,0,Wunderground v.1.15,2013-04-22 10:08:00,
2013-04-22 05:14:00,64.0,56.6,30.09,East,96,0.0,-999.0,77,0.00,,,0.00,0,Wunderground v.1.15,2013-04-22 10:14:00,
2013-04-22 05:20:00,63.9,56.5,30.09,East,96,0.0,-999.0,77,0.00,,,0.00,0,Wunderground v.1.15,2013-04-22 10:20:00,
2013-04-22 05:26:00,63.7,56.0,30.09,SE,145,0.0,-999.0,76,0.00,,,0.00,0,Wunderground v.1.15,2013-04-22 10:26:00,
2013-04-22 05:32:00,63.6,56.3,30.09,East,92,0.0,-999.0,77,0.00,,,0.00,0,Wunderground v.1.15,2013-04-22 10:32:00,
2013-04-22 05:38:00,63.5,56.2,30.09,East,98,0.0,-999.0,77,0.00,,,0.00,0,Wunderground v.1.15,2013-04-22 10:38:00,
2013-04-22 05:44:00,63.4,56.1,30.08,East,98,0.0,-999.0,77,0.00,,,0.00,0,Wunderground v.1.15,2013-04-22 10:44:00,
2013-04-22 05:50:00,63.3,56.0,30.09,East,98,0.0,-999.0,77,0.00,,,0.00,0,Wunderground v.1.15,2013-04-22 10:50:00,
2013-04-22 05:56:00,63.2,56.2,30.10,East,94,0.0,-999.0,78,0.00,,,0.00,0,Wunderground v.1.15,2013-04-22 10:56:00,
2013-04-22 06:02:00,63.0,56.0,30.10,ESE,104,0.0,-999.0,78,0.00,,,0.00,0,Wunderground v.1.15,2013-04-22 11:02:00,
2013-04-22 06:08:00,63.0,56.4,30.10,East,101,0.0,-999.0,79,0.00,,,0.00,0,Wunderground v.1.15,2013-04-22 11:08:00,
2013-04-22 06:14:00,62.9,56.6,30.10,South,188,0.0,-999.0,80,0.00,,,0.00,0,Wunderground v.1.15,2013-04-22 11:14:00,
2013-04-22 06:20:00,62.9,56.6,30.10,East,86,0.0,-999.0,80,0.00,,,0.00,7,Wunderground v.1.15,2013-04-22 11:20:00,
2013-04-22 06:26:00,62.9,57.0,30.11,East,85,0.0,-999.0,81,0.00,,,0.00,11,Wunderground v.1.15,2013-04-22 11:26:00,
2013-04-22 06:32:00,62.9,57.0,30.11,East,85,0.0,-999.0,81,0.00,,,0.00,16,Wunderground v.1.15,2013-04-22 11:32:00,
2013-04-22 06:38:00,63.0,57.4,30.11,ENE,61,0.0,-999.0,82,0.00,,,0.00,19,Wunderground v.1.15,2013-04-22 11:38:00,
2013-04-22 06:44:00,63.0,57.8,30.11,East,80,0.0,-999.0,83,0.00,,,0.00,25,Wunderground v.1.15,2013-04-22 11:44:00,
2013-04-22 06:50:00,63.1,57.9,30.12,ENE,69,0.0,-999.0,83,0.00,,,0.00,33,Wunderground v.1.15,2013-04-22 11:50:00,
2013-04-22 06:56:00,63.2,57.9,30.12,ENE,69,0.0,-999.0,83,0.00,,,0.00,40,Wunderground v.1.15,2013-04-22 11:56:00,
2013-04-22 07:02:00,63.3,58.4,30.12,ENE,69,0.0,-999.0,84,0.00,,,0.00,47,Wunderground v.1.15,2013-04-22 12:02:00,
2013-04-22 07:08:00,63.6,58.7,30.12,ENE,69,0.0,-999.0,84,0.00,,,0.00,49,Wunderground v.1.15,2013-04-22 12:08:00,
2013-04-22 07:14:00,63.8,58.9,30.12,ENE,69,0.0,-999.0,84,0.00,,,0.00,76,Wunderground v.1.15,2013-04-22 12:14:00,
2013-04-22 07:20:00,64.1,59.2,30.12,ESE,117,0.0,-999.0,84,0.00,,,0.00,60,Wunderground v.1.15,2013-04-22 12:20:00,
2013-04-22 07:26:00,64.5,59.2,30.13,North,355,0.0,-999.0,83,0.00,,,0.00,62,Wunderground v.1.15,2013-04-22 12:26:00,
2013-04-22 07:32:00,64.9,59.3,30.13,NNW,348,0.0,-999.0,82,0.00,,,0.00,83,Wunderground v.1.15,2013-04-22 12:32:00,
2013-04-22 07:38:00,64.9,59.3,30.13,East,84,0.0,-999.0,82,0.00,,,0.00,120,Wunderground v.1.15,2013-04-22 12:38:00,
2013-04-22 07:44:00,64.9,59.3,30.13,East,84,0.0,-999.0,82,0.00,,,0.00,60,Wunderground v.1.15,2013-04-22 12:44:00,
2013-04-22 07:50:00,65.1,59.8,30.14,East,84,0.0,-999.0,83,0.00,,,0.00,172,Wunderground v.1.15,2013-04-22 12:50:00,
2013-04-22 07:56:00,65.3,59.7,30.14,SSW,202,0.0,-999.0,82,0.00,,,0.00,100,Wunderground v.1.15,2013-04-22 12:56:00,
2013-04-22 08:02:00,65.6,59.6,30.14,South,178,0.0,-999.0,81,0.00,,,0.00,95,Wunderground v.1.15,2013-04-22 13:02:00,
2013-04-22 08:08:00,65.9,59.9,30.14,SE,142,0.0,-999.0,81,0.00,,,0.00,120,Wunderground v.1.15,2013-04-22 13:08:00,
2013-04-22 08:14:00,65.8,59.8,30.14,ENE,71,0.0,-999.0,81,0.00,,,0.00,128,Wunderground v.1.15,2013-04-22 13:14:00,
2013-04-22 08:20:00,66.0,60.0,30.14,East,94,0.0,-999.0,81,0.00,,,0.00,163,Wunderground v.1.15,2013-04-22 13:20:00,
2013-04-22 08:26:00,66.2,59.8,30.14,ENE,77,0.0,-999.0,80,0.00,,,0.00,132,Wunderground v.1.15,2013-04-22 13:26:00,
2013-04-22 08:32:00,66.5,59.8,30.14,West,262,0.0,-999.0,79,0.00,,,0.00,163,Wunderground v.1.15,2013-04-22 13:32:00,
2013-04-22 08:38:00,66.8,59.7,30.14,SSE,153,0.0,-999.0,78,0.00,,,0.00,179,Wunderground v.1.15,2013-04-22 13:38:00,
2013-04-22 08:44:00,67.1,60.0,30.14,East,93,0.0,-999.0,78,0.00,,,0.00,202,Wunderground v.1.15,2013-04-22 13:44:00,
2013-04-22 08:50:00,67.5,60.0,30.14,SSE,151,0.0,-999.0,77,0.00,,,0.00,225,Wunderground v.1.15,2013-04-22 13:50:00,
2013-04-22 08:56:00,67.9,60.4,30.14,ESE,109,0.0,-999.0,77,0.00,,,0.00,230,Wunderground v.1.15,2013-04-22 13:56:00,
2013-04-22 09:02:00,68.1,60.2,30.14,ESE,119,1.0,-999.0,76,0.00,,,0.00,264,Wunderground v.1.15,2013-04-22 14:02:00,
2013-04-22 09:08:00,68.5,60.3,30.14,SE,130,0.0,-999.0,75,0.00,,,0.00,260,Wunderground v.1.15,2013-04-22 14:08:00,
2013-04-22 09:14:00,68.7,60.5,30.15,NNE,13,1.0,-999.0,75,0.00,,,0.00,278,Wunderground v.1.15,2013-04-22 14:14:00,
2013-04-22 09:20:00,68.9,60.6,30.15,SSE,161,1.0,-999.0,75,0.00,,,0.00,294,Wunderground v.1.15,2013-04-22 14:20:00,
2013-04-22 09:26:00,69.2,60.9,30.15,ENE,75,1.0,-999.0,75,0.00,,,0.00,246,Wunderground v.1.15,2013-04-22 14:26:00,
2013-04-22 09:32:00,69.4,60.8,30.15,ESE,115,1.0,-999.0,74,0.00,,,0.00,318,Wunderground v.1.15,2013-04-22 14:32:00,
2013-04-22 09:38:00,69.7,61.0,30.15,SE,142,1.0,-999.0,74,0.00,,,0.00,308,Wunderground v.1.15,2013-04-22 14:38:00,
2013-04-22 09:44:00,70.3,61.6,30.15,NNE,32,1.0,-999.0,74,0.00,,,0.00,751,Wunderground v.1.15,2013-04-22 14:44:00,
2013-04-22 09:50:00,70.7,61.6,30.15,East,89,1.0,-999.0,73,0.00,,,0.00,422,Wunderground v.1.15,2013-04-22 14:50:00,
2013-04-22 09:56:00,71.0,61.5,30.15,NNW,328,1.0,-999.0,72,0.00,,,0.00,415,Wunderground v.1.15,2013-04-22 14:56:00,
2013-04-22 10:02:00,71.2,61.7,30.15,SSE,150,1.0,-999.0,72,0.00,,,0.00,432,Wunderground v.1.15,2013-04-22 15:02:00,
2013-04-22 10:08:00,71.7,61.8,30.16,East,82,1.0,-999.0,71,0.00,,,0.00,432,Wunderground v.1.15,2013-04-22 15:08:00,
2013-04-22 10:14:00,71.9,61.6,30.16,ESE,105,1.0,-999.0,70,0.00,,,0.00,738,Wunderground v.1.15,2013-04-22 15:14:00,
2013-04-22 10:20:00,72.2,61.9,30.16,East,82,1.0,-999.0,70,0.00,,,0.00,919,Wunderground v.1.15,2013-04-22 15:20:00,
2013-04-22 10:26:00,72.7,62.3,30.16,ESE,109,1.0,-999.0,70,0.00,,,0.00,568,Wunderground v.1.15,2013-04-22 15:26:00,
2013-04-22 10:32:00,73.4,63.4,30.16,SSW,209,1.0,-999.0,71,0.00,,,0.00,851,Wunderground v.1.15,2013-04-22 15:32:00,
2013-04-22 10:38:00,74.0,63.2,30.15,North,355,1.0,-999.0,69,0.00,,,0.00,874,Wunderground v.1.15,2013-04-22 15:38:00,
2013-04-22 10:44:00,74.6,62.9,30.16,SW,221,1.0,-999.0,67,0.00,,,0.00,802,Wunderground v.1.15,2013-04-22 15:44:00,
2013-04-22 10:50:00,75.0,62.9,30.16,SSW,205,1.0,-999.0,66,0.00,,,0.00,306,Wunderground v.1.15,2013-04-22 15:50:00,
2013-04-22 10:56:00,74.8,63.1,30.15,NW,325,1.0,-999.0,67,0.00,,,0.00,399,Wunderground v.1.15,2013-04-22 15:56:00,
2013-04-22 11:02:00,74.8,63.1,30.15,SSE,159,1.0,-999.0,67,0.00,,,0.00,446,Wunderground v.1.15,2013-04-22 16:02:00,
2013-04-22 11:08:00,74.3,62.6,30.16,SSE,158,1.0,-999.0,67,0.00,,,0.00,355,Wunderground v.1.15,2013-04-22 16:08:00,
2013-04-22 11:14:00,73.6,62.8,30.16,South,175,1.0,-999.0,69,0.00,,,0.00,417,Wunderground v.1.15,2013-04-22 16:14:00,
2013-04-22 11:20:00,73.3,62.1,30.16,ESE,105,1.0,-999.0,68,0.00,,,0.00,383,Wunderground v.1.15,2013-04-22 16:20:00,
2013-04-22 11:26:00,73.3,62.9,30.16,NW,325,1.0,-999.0,70,0.00,,,0.00,390,Wunderground v.1.15,2013-04-22 16:26:00,
2013-04-22 11:32:00,73.5,62.7,30.16,East,92,0.0,-999.0,69,0.00,,,0.00,401,Wunderground v.1.15,2013-04-22 16:32:00,
2013-04-22 11:38:00,73.4,62.6,30.15,SSE,150,0.0,-999.0,69,0.00,,,0.00,396,Wunderground v.1.15,2013-04-22 16:38:00,
2013-04-22 11:44:00,73.2,62.4,30.15,East,80,1.0,-999.0,69,0.00,,,0.00,396,Wunderground v.1.15,2013-04-22 16:44:00,
2013-04-22 11:50:00,73.1,62.7,30.15,East,94,1.0,-999.0,70,0.00,,,0.00,381,Wunderground v.1.15,2013-04-22 16:50:00,
2013-04-22 11:56:00,73.2,62.8,30.15,NNE,24,0.0,-999.0,70,0.00,,,0.00,387,Wunderground v.1.15,2013-04-22 16:56:00,
2013-04-22 12:02:00,73.1,62.7,30.15,SE,132,0.0,-999.0,70,0.00,,,0.00,336,Wunderground v.1.15,2013-04-22 17:02:00,
2013-04-22 12:08:00,72.9,62.5,30.15,South,180,1.0,-999.0,70,0.00,,,0.00,274,Wunderground v.1.15,2013-04-22 17:08:00,
2013-04-22 12:14:00,72.6,62.3,30.15,East,88,1.0,-999.0,70,0.00,,,0.00,325,Wunderground v.1.15,2013-04-22 17:14:00,
2013-04-22 12:20:00,72.7,62.8,30.15,ENE,74,1.0,-999.0,71,0.00,,,0.00,350,Wunderground v.1.15,2013-04-22 17:20:00,
2013-04-22 12:26:00,72.9,62.9,30.14,ENE,76,0.0,-999.0,71,0.00,,,0.00,350,Wunderground v.1.15,2013-04-22 17:26:00,
2013-04-22 12:32:00,73.0,63.0,30.14,ESE,109,1.0,-999.0,71,0.00,,,0.00,396,Wunderground v.1.15,2013-04-22 17:32:00,
2013-04-22 12:38:00,73.2,63.2,30.14,West,268,1.0,-999.0,71,0.00,,,0.00,561,Wunderground v.1.15,2013-04-22 17:38:00,
2013-04-22 12:44:00,73.6,63.6,30.14,ESE,116,1.0,-999.0,71,0.00,,,0.00,631,Wunderground v.1.15,2013-04-22 17:44:00,
2013-04-22 12:50:00,74.4,63.6,30.14,ESE,121,1.0,-999.0,69,0.00,,,0.00,712,Wunderground v.1.15,2013-04-22 17:50:00,
2013-04-22 12:56:00,75.5,64.2,30.14,South,176,1.0,-999.0,68,0.00,,,0.00,712,Wunderground v.1.15,2013-04-22 17:56:00,
2013-04-22 13:02:00,76.9,64.7,30.13,East,82,1.0,-999.0,66,0.00,,,0.00,1046,Wunderground v.1.15,2013-04-22 18:02:00,
2013-04-22 13:08:00,78.1,64.9,30.13,SE,126,1.0,-999.0,64,0.00,,,0.00,1245,Wunderground v.1.15,2013-04-22 18:08:00,
2013-04-22 13:14:00,78.7,65.0,30.13,West,269,1.0,-999.0,63,0.00,,,0.00,482,Wunderground v.1.15,2013-04-22 18:14:00,
2013-04-22 13:20:00,78.2,64.6,30.13,SW,230,1.0,-999.0,63,0.00,,,0.00,202,Wunderground v.1.15,2013-04-22 18:20:00,
2013-04-22 13:26:00,77.5,64.4,30.13,SSW,205,1.0,-999.0,64,0.00,,,0.00,306,Wunderground v.1.15,2013-04-22 18:26:00,
2013-04-22 13:32:00,76.8,64.1,30.13,South,173,0.0,-999.0,65,0.00,,,0.00,260,Wunderground v.1.15,2013-04-22 18:32:00,
2013-04-22 13:38:00,75.9,63.7,30.13,East,83,0.0,-999.0,66,0.00,,,0.00,468,Wunderground v.1.15,2013-04-22 18:38:00,
2013-04-22 13:44:00,75.9,64.6,30.12,SSW,194,0.0,-999.0,68,0.00,,,0.00,631,Wunderground v.1.15,2013-04-22 18:44:00,
2013-04-22 13:50:00,76.2,64.4,30.12,SSE,163,1.0,-999.0,67,0.00,,,0.00,717,Wunderground v.1.15,2013-04-22 18:50:00,
2013-04-22 13:56:00,76.4,64.6,30.12,WNW,290,1.0,-999.0,67,0.00,,,0.00,566,Wunderground v.1.15,2013-04-22 18:56:00,
2013-04-22 14:02:00,76.4,64.2,30.12,ESE,121,0.0,-999.0,66,0.00,,,0.00,353,Wunderground v.1.15,2013-04-22 19:02:00,
2013-04-22 14:08:00,76.2,64.0,30.12,ENE,77,0.0,-999.0,66,0.00,,,0.00,399,Wunderground v.1.15,2013-04-22 19:08:00,
2013-04-22 14:14:00,76.2,64.4,30.12,SSE,149,0.0,-999.0,67,0.00,,,0.00,652,Wunderground v.1.15,2013-04-22 19:14:00,
2013-04-22 14:20:00,76.1,64.3,30.11,SW,220,1.0,-999.0,67,0.00,,,0.00,550,Wunderground v.1.15,2013-04-22 19:20:00,
2013-04-22 14:26:00,76.2,64.4,30.11,NE,52,1.0,-999.0,67,0.00,,,0.00,480,Wunderground v.1.15,2013-04-22 19:26:00,
2013-04-22 14:32:00,76.6,64.4,30.11,SW,225,1.0,-999.0,66,0.00,,,0.00,1171,Wunderground v.1.15,2013-04-22 19:32:00,
2013-04-22 14:38:00,77.2,64.1,30.11,ENE,58,1.0,-999.0,64,0.00,,,0.00,1063,Wunderground v.1.15,2013-04-22 19:38:00,
2013-04-22 14:44:00,77.4,63.8,30.11,ESE,112,2.0,-999.0,63,0.00,,,0.00,550,Wunderground v.1.15,2013-04-22 19:44:00,
2013-04-22 14:50:00,77.5,63.9,30.11,East,94,2.0,-999.0,63,0.00,,,0.00,475,Wunderground v.1.15,2013-04-22 19:50:00,
2013-04-22 14:56:00,78.0,64.4,30.11,South,180,2.0,-999.0,63,0.00,,,0.00,448,Wunderground v.1.15,2013-04-22 19:56:00,
2013-04-22 15:02:00,77.9,64.7,30.10,NNW,342,0.0,-999.0,64,0.00,,,0.00,285,Wunderground v.1.15,2013-04-22 20:02:00,
2013-04-22 15:08:00,77.8,64.6,30.10,South,169,0.0,-999.0,64,0.00,,,0.00,953,Wunderground v.1.15,2013-04-22 20:08:00,
2013-04-22 15:14:00,78.2,64.6,30.10,NNE,30,0.0,-999.0,63,0.00,,,0.00,940,Wunderground v.1.15,2013-04-22 20:14:00,
2013-04-22 15:20:00,78.4,64.3,30.10,ESE,111,1.0,-999.0,62,0.00,,,0.00,253,Wunderground v.1.15,2013-04-22 20:20:00,
2013-04-22 15:26:00,77.8,63.7,30.10,SSE,158,1.0,-999.0,62,0.00,,,0.00,239,Wunderground v.1.15,2013-04-22 20:26:00,
2013-04-22 15:32:00,77.8,64.6,30.10,SE,128,1.0,-999.0,64,0.00,,,0.00,784,Wunderground v.1.15,2013-04-22 20:32:00,
2013-04-22 15:38:00,77.4,64.3,30.09,SSW,194,1.0,-999.0,64,0.00,,,0.00,274,Wunderground v.1.15,2013-04-22 20:38:00,
2013-04-22 15:44:00,77.2,64.1,30.09,SSE,152,1.0,-999.0,64,0.00,,,0.00,459,Wunderground v.1.15,2013-04-22 20:44:00,
2013-04-22 15:50:00,77.3,64.2,30.09,SE,135,1.0,-999.0,64,0.00,,,0.00,295,Wunderground v.1.15,2013-04-22 20:50:00,
2013-04-22 15:56:00,77.0,63.9,30.09,East,93,0.0,-999.0,64,0.00,,,0.00,281,Wunderground v.1.15,2013-04-22 20:56:00,
2013-04-22 16:02:00,76.7,64.0,30.09,SSE,155,0.0,-999.0,65,0.00,,,0.00,287,Wunderground v.1.15,2013-04-22 21:02:00,
2013-04-22 16:08:00,76.6,64.0,30.09,South,179,0.0,-999.0,65,0.00,,,0.00,232,Wunderground v.1.15,2013-04-22 21:08:00,
2013-04-22 16:14:00,76.3,64.1,30.09,South,178,0.0,-999.0,66,0.00,,,0.00,206,Wunderground v.1.15,2013-04-22 21:14:00,
2013-04-22 16:20:00,75.6,63.4,30.09,South,178,0.0,-999.0,66,0.00,,,0.00,163,Wunderground v.1.15,2013-04-22 21:20:00,
2013-04-22 16:26:00,75.4,63.7,30.09,SSE,153,0.0,-999.0,67,0.00,,,0.00,178,Wunderground v.1.15,2013-04-22 21:26:00,
2013-04-22 16:32:00,74.7,63.4,30.09,SSE,153,0.0,-999.0,68,0.00,,,0.00,229,Wunderground v.1.15,2013-04-22 21:32:00,
2013-04-22 16:38:00,74.3,63.5,30.09,SSE,165,0.0,-999.0,69,0.00,,,0.00,183,Wunderground v.1.15,2013-04-22 21:38:00,
2013-04-22 16:44:00,74.1,63.7,30.09,SE,134,0.0,-999.0,70,0.00,,,0.00,211,Wunderground v.1.15,2013-04-22 21:44:00,
2013-04-22 16:50:00,74.1,63.3,30.09,South,173,0.0,-999.0,69,0.00,,,0.00,223,Wunderground v.1.15,2013-04-22 21:50:00,
2013-04-22 16:56:00,74.2,63.8,30.09,South,180,0.0,-999.0,70,0.00,,,0.00,230,Wunderground v.1.15,2013-04-22 21:56:00,
2013-04-22 17:02:00,74.3,63.5,30.08,South,188,1.0,-999.0,69,0.00,,,0.00,243,Wunderground v.1.15,2013-04-22 22:02:00,
2013-04-22 17:08:00,74.4,63.6,30.08,ESE,119,0.0,-999.0,69,0.00,,,0.00,149,Wunderground v.1.15,2013-04-22 22:08:00,
2013-04-22 17:14:00,74.5,63.7,30.08,SW,224,0.0,-999.0,69,0.00,,,0.00,139,Wunderground v.1.15,2013-04-22 22:14:00,
2013-04-22 17:20:00,74.5,64.1,30.08,West,280,0.0,-999.0,70,0.00,,,0.00,111,Wunderground v.1.15,2013-04-22 22:20:00,
2013-04-22 17:26:00,74.3,63.5,30.08,ESE,113,0.0,-999.0,69,0.00,,,0.00,151,Wunderground v.1.15,2013-04-22 22:26:00,
2013-04-22 17:32:00,74.1,63.7,30.08,SE,144,0.0,-999.0,70,0.00,,,0.00,114,Wunderground v.1.15,2013-04-22 22:32:00,
2013-04-22 17:38:00,73.9,63.5,30.08,SE,131,0.0,-999.0,70,0.00,,,0.00,109,Wunderground v.1.15,2013-04-22 22:38:00,
2013-04-22 17:44:00,73.5,63.5,30.08,SSE,152,1.0,-999.0,71,0.00,,,0.00,113,Wunderground v.1.15,2013-04-22 22:44:00,
2013-04-22 17:50:00,73.2,63.6,30.08,SSE,150,1.0,-999.0,72,0.00,,,0.00,114,Wunderground v.1.15,2013-04-22 22:50:00,
2013-04-22 17:56:00,73.1,63.5,30.08,South,186,1.0,-999.0,72,0.00,,,0.00,72,Wunderground v.1.15,2013-04-22 22:56:00,
2013-04-22 18:02:00,73.0,63.4,30.08,SSE,161,1.0,-999.0,72,0.00,,,0.00,102,Wunderground v.1.15,2013-04-22 23:02:00,
2013-04-22 18:08:00,72.9,63.3,30.08,ENE,71,1.0,-999.0,72,0.00,,,0.00,63,Wunderground v.1.15,2013-04-22 23:08:00,
2013-04-22 18:14:00,72.7,63.5,30.08,SSW,200,0.0,-999.0,73,0.00,,,0.00,60,Wunderground v.1.15,2013-04-22 23:14:00,
2013-04-22 18:20:00,72.5,63.4,30.08,SSE,155,0.0,-999.0,73,0.00,,,0.00,83,Wunderground v.1.15,2013-04-22 23:20:00,
2013-04-22 18:26:00,72.4,63.3,30.08,ENE,63,0.0,-999.0,73,0.00,,,0.00,37,Wunderground v.1.15,2013-04-22 23:26:00,
2013-04-22 18:32:00,72.1,63.0,30.08,SSW,194,0.0,-999.0,73,0.00,,,0.00,40,Wunderground v.1.15,2013-04-22 23:32:00,
2013-04-22 18:38:00,71.8,63.1,30.08,NNE,24,0.0,-999.0,74,0.00,,,0.00,40,Wunderground v.1.15,2013-04-22 23:38:00,
2013-04-22 18:44:00,71.7,63.0,30.07,NNE,24,0.0,-999.0,74,0.00,,,0.00,35,Wunderground v.1.15,2013-04-22 23:44:00,
2013-04-22 18:50:00,71.6,63.3,30.08,South,189,0.0,-999.0,75,0.00,,,0.00,21,Wunderground v.1.15,2013-04-22 23:50:00,
2013-04-22 18:56:00,71.4,63.1,30.07,South,189,0.0,-999.0,75,0.00,,,0.00,19,Wunderground v.1.15,2013-04-22 23:56:00,
2013-04-22 19:02:00,71.0,62.7,30.07,ESE,104,0.0,-999.0,75,0.00,,,0.00,14,Wunderground v.1.15,2013-04-23 00:02:00,
2013-04-22 19:08:00,70.7,62.0,30.07,ESE,105,0.0,-999.0,74,0.00,,,0.00,11,Wunderground v.1.15,2013-04-23 00:08:00,
2013-04-22 19:14:00,70.4,62.1,30.07,ESE,105,0.0,-999.0,75,0.00,,,0.00,7,Wunderground v.1.15,2013-04-23 00:14:00,
2013-04-22 19:20:00,70.1,61.8,30.07,SSE,167,0.0,-999.0,75,0.00,,,0.00,0,Wunderground v.1.15,2013-04-23 00:20:00,
2013-04-22 19:26:00,69.8,61.9,30.08,ENE,61,0.0,-999.0,76,0.00,,,0.00,0,Wunderground v.1.15,2013-04-23 00:26:00,
2013-04-22 19:32:00,69.6,61.7,30.08,East,88,0.0,-999.0,76,0.00,,,0.00,0,Wunderground v.1.15,2013-04-23 00:32:00,
2013-04-22 19:38:00,69.4,61.5,30.08,North,360,0.0,-999.0,76,0.00,,,0.00,0,Wunderground v.1.15,2013-04-23 00:38:00,
2013-04-22 19:44:00,69.2,61.7,30.08,SE,130,0.0,-999.0,77,0.00,,,0.00,0,Wunderground v.1.15,2013-04-23 00:44:00,
2013-04-22 19:50:00,69.0,61.5,30.08,ENE,70,0.0,-999.0,77,0.00,,,0.00,0,Wunderground v.1.15,2013-04-23 00:50:00,
2013-04-22 19:56:00,68.8,61.3,30.08,ENE,71,0.0,-999.0,77,0.00,,,0.00,0,Wunderground v.1.15,2013-04-23 00:56:00,
2013-04-22 20:02:00,68.5,61.4,30.08,ENE,71,0.0,-999.0,78,0.00,,,0.00,0,Wunderground v.1.15,2013-04-23 01:02:00,
2013-04-22 20:08:00,68.4,61.3,30.09,ENE,70,0.0,-999.0,78,0.00,,,0.00,0,Wunderground v.1.15,2013-04-23 01:08:00,
2013-04-22 20:14:00,68.3,61.2,30.09,ESE,117,0.0,-999.0,78,0.00,,,0.00,0,Wunderground v.1.15,2013-04-23 01:14:00,
2013-04-22 20:20:00,68.1,61.3,30.09,ESE,117,0.0,-999.0,79,0.00,,,0.00,0,Wunderground v.1.15,2013-04-23 01:20:00,
2013-04-22 20:26:00,68.0,61.2,30.09,ESE,114,0.0,-999.0,79,0.00,,,0.00,0,Wunderground v.1.15,2013-04-23 01:26:00,
2013-04-22 20:32:00,67.9,61.5,30.09,ESE,114,0.0,-999.0,80,0.00,,,0.00,0,Wunderground v.1.15,2013-04-23 01:32:00,
2013-04-22 20:38:00,67.6,61.2,30.09,SSW,196,0.0,-999.0,80,0.00,,,0.00,0,Wunderground v.1.15,2013-04-23 01:38:00,
2013-04-22 20:44:00,67.5,60.8,30.09,SSW,204,0.0,-999.0,79,0.00,,,0.00,0,Wunderground v.1.15,2013-04-23 01:44:00,
2013-04-22 20:50:00,67.3,60.6,30.09,ESE,119,0.0,-999.0,79,0.00,,,0.00,0,Wunderground v.1.15,2013-04-23 01:50:00,
2013-04-22 20:56:00,67.2,60.5,30.09,East,83,0.0,-999.0,79,0.00,,,0.00,0,Wunderground v.1.15,2013-04-23 01:56:00,
2013-04-22 21:02:00,67.1,60.4,30.10,East,83,0.0,-999.0,79,0.00,,,0.00,0,Wunderground v.1.15,2013-04-23 02:02:00,
2013-04-22 21:08:00,67.0,60.3,30.10,ENE,60,0.0,-999.0,79,0.00,,,0.00,0,Wunderground v.1.15,2013-04-23 02:08:00,
2013-04-22 21:14:00,66.8,60.4,30.10,ENE,60,0.0,-999.0,80,0.00,,,0.00,0,Wunderground v.1.15,2013-04-23 02:14:00,
2013-04-22 21:20:00,66.6,60.2,30.10,ENE,60,0.0,-999.0,80,0.00,,,0.00,0,Wunderground v.1.15,2013-04-23 02:20:00,
2013-04-22 21:26:00,66.5,60.1,30.10,ENE,60,0.0,-999.0,80,0.00,,,0.00,0,Wunderground v.1.15,2013-04-23 02:26:00,
2013-04-22 21:32:00,66.3,59.9,30.11,ENE,60,0.0,-999.0,80,0.00,,,0.00,0,Wunderground v.1.15,2013-04-23 02:32:00,
2013-04-22 21:38:00,66.2,59.8,30.11,ENE,60,0.0,-999.0,80,0.00,,,0.00,0,Wunderground v.1.15,2013-04-23 02:38:00,
2013-04-22 21:44:00,66.1,60.1,30.11,ENE,60,0.0,-999.0,81,0.00,,,0.00,0,Wunderground v.1.15,2013-04-23 02:44:00,
2013-04-22 21:50:00,65.9,59.9,30.11,ENE,60,0.0,-999.0,81,0.00,,,0.00,0,Wunderground v.1.15,2013-04-23 02:50:00,
2013-04-22 21:56:00,65.8,59.8,30.11,ENE,60,0.0,-999.0,81,0.00,,,0.00,0,Wunderground v.1.15,2013-04-23 02:56:00,
2013-04-22 22:02:00,65.7,59.7,30.11,ENE,60,0.0,-999.0,81,0.00,,,0.00,0,Wunderground v.1.15,2013-04-23 03:02:00,
2013-04-22 22:08:00,65.5,59.9,30.11,ENE,60,0.0,-999.0,82,0.00,,,0.00,0,Wunderground v.1.15,2013-04-23 03:08:00,
2013-04-22 22:14:00,65.5,59.9,30.11,ENE,60,0.0,-999.0,82,0.00,,,0.00,0,Wunderground v.1.15,2013-04-23 03:14:00,
2013-04-22 22:20:00,65.4,59.8,30.11,ENE,60,0.0,-999.0,82,0.00,,,0.00,0,Wunderground v.1.15,2013-04-23 03:20:00,
2013-04-22 22:26:00,65.3,59.7,30.11,ENE,60,0.0,-999.0,82,0.00,,,0.00,0,Wunderground v.1.15,2013-04-23 03:26:00,
2013-04-22 22:32:00,65.2,59.6,30.11,ENE,60,0.0,-999.0,82,0.00,,,0.00,0,Wunderground v.1.15,2013-04-23 03:32:00,
2013-04-22 22:38:00,65.1,59.5,30.11,ENE,60,0.0,-999.0,82,0.00,,,0.00,0,Wunderground v.1.15,2013-04-23 03:38:00,
2013-04-22 22:44:00,65.0,59.7,30.11,ENE,60,0.0,-999.0,83,0.00,,,0.00,0,Wunderground v.1.15,2013-04-23 03:44:00,
2013-04-22 22:50:00,65.0,59.7,30.11,ENE,60,0.0,-999.0,83,0.00,,,0.00,0,Wunderground v.1.15,2013-04-23 03:50:00,
2013-04-22 22:56:00,64.9,59.6,30.11,ENE,60,0.0,-999.0,83,0.00,,,0.00,0,Wunderground v.1.15,2013-04-23 03:56:00,
2013-04-22 23:02:00,64.8,59.5,30.11,ENE,60,0.0,-999.0,83,0.00,,,0.00,0,Wunderground v.1.15,2013-04-23 04:02:00,
2013-04-22 23:04:00,64.8,59.5,30.11,ENE,60,0.0,-999.0,83,0.00,,,0.00,0,Wunderground v.1.15,2013-04-23 04:04:00,
2013-04-22 23:08:00,64.8,59.5,30.11,ENE,60,0.0,-999.0,83,0.00,,,0.00,0,Wunderground v.1.15,2013-04-23 04:08:00,
2013-04-22 23:10:00,64.8,59.5,30.11,ENE,60,0.0,-999.0,83,0.00,,,0.00,0,Wunderground v.1.15,2013-04-23 04:10:00,
2013-04-22 23:14:00,64.8,59.5,30.11,ENE,60,0.0,-999.0,83,0.00,,,0.00,0,Wunderground v.1.15,2013-04-23 04:14:00,
2013-04-22 23:20:00,64.8,59.5,30.11,ENE,60,0.0,-999.0,83,0.00,,,0.00,0,Wunderground v.1.15,2013-04-23 04:20:00,
2013-04-22 23:26:00,64.8,59.9,30.11,ENE,60,0.0,-999.0,84,0.00,,,0.00,0,Wunderground v.1.15,2013-04-23 04:26:00,
2013-04-22 23:32:00,64.9,59.9,30.11,SW,227,0.0,-999.0,84,0.00,,,0.00,0,Wunderground v.1.15,2013-04-23 04:32:00,
2013-04-22 23:38:00,64.9,59.9,30.11,SW,229,0.0,-999.0,84,0.00,,,0.00,0,Wunderground v.1.15,2013-04-23 04:38:00,
2013-04-22 23:44:00,65.0,60.4,30.11,SW,229,0.0,-999.0,85,0.00,,,0.00,0,Wunderground v.1.15,2013-04-23 04:44:00,
2013-04-22 23:50:00,65.0,60.4,30.10,SW,229,0.0,-999.0,85,0.00,,,0.00,0,Wunderground v.1.15,2013-04-23 04:50:00,
2013-04-22 23:56:00,65.0,60.7,30.10,NE,56,0.0,-999.0,86,0.00,,,0.00,0,Wunderground v.1.15,2013-04-23 04:56:00,